Location: Unspecified
(0.0000°N, 0.0000°E)
Time: 21:00:32
(UTC+00:00)

OBJECT G - Visible Passes

Search period start: 07 September 2024 00:00
Search period end: 17 September 2024 00:00
Orbit: 562 x 585 km, 62.0° (Epoch: 07 September)

Date Brightness Start Highest point End Pass type
(mag) Time Alt. Az. Time Alt. Az. Time Alt. Az.
14 Sep ? 20:08:39 10° SW 20:09:29 15° SW 20:09:29 15° SW visible
15 Sep ? 18:32:56 10° SSE 18:35:49 18° ESE 18:37:35 14° E visible
15 Sep ? 20:11:51 10° WSW 20:13:53 17° W 20:13:53 17° W visible
16 Sep ? 18:34:21 10° S 18:38:07 33° ESE 18:41:53 10° NE visible
